"Pseudo-MPEC" for P212g2Y

Created 2020 Jul 1 1:07:15 UT using Find_Orb

Click here for an explanation of pseudo-MPECs

 
 Astrometry: 
     P212g2Y  C2020 05 30j6ev6^-L+Cqj,d@Ze6clNvZx*eHPll;ir,MX2#OVcmwC2wZuCbL#F51
     P212g2Y  C2020 05 30`VBbYrTKhCDtJ$,\'59k\64ngHD10p4JL12+]A1K/yi3+K:@_TtqF51
     P212g2Y  C2020 06 29vv;--1u17`xwD?.o]=oL*TAstrometryRDup^Q%2HU.=b;(7'@x%F52
     P212g2Y  C2020 06 29qBDYk'P:.Zo:XD0uiNxD]o`RxR3rP8CL\q,2f[@xY*o.tw,r43ATF52
     P212g2Y  C2020 06 29eTomIu)%lG1XMQ9mOLRx[Lvgx0C1+QP`WySZt6_g^pEredacted;F52
     P212g2Y  C2020 06 29eG93QeeOclickFk%hCje/uq_5(_hc3%=s\tmI%X4/YYhere4!#X@F52
     P212g2Y bC2020 06 30fT7%it2]Rk9Rb2,Daynf2\OkpdFMBf9PXtR],i5Q(A9oN7V'_v9BL01
     P212g2Y bC2020 06 30L*lj*?fq2=)Pk[gw$VN,RA!ZX1ab!:h_,2j%xa7ojA`%c7)?eiq`L01
     P212g2Y bC2020 06 30EQ?0for97rn+:SkLCp%^-t((5-kLj1l4\RYhKi[OG0(8].bdo6mxL01
     P212g2Y KC2020 06 30.03989822 12 25.53 -07 22 02.4    ~6U1q 20.6 GUNEOCPI93
     P212g2Y KC2020 06 30.05078122 12 27.35 -07 21 54.9    ~6U1q 20.6 GUNEOCPI93
     P212g2Y KC2020 06 30.06421122 12 29.55 -07 21 46.0    ~6U1q 20.2 GUNEOCPI93
     P212g2Y  C2020 06 30KTCxy.j3kvF3H5nd+wfY$S_go$6+KhexplanationWY2/X@SEeOkF51
     P212g2Y  C2020 06 30xQ[FpfC\\W:5p[^trjy`!Yrd79=]XF(WRc#*!8@2RV(hn#`^F95sF51
     P212g2Y  C2020 06 30#MftdDul!M0YO:4AZFMj(;__!w7Qun$aiB+diakyttmb;'bhrj*1F51

Station data:
(F51) Pan-STARRS 1, Haleakala  (N20.707235 W156.255910)  US/Hawaii.
   Observers N. Primak, A. Schultz, S. Watters, J. Thiel, T. Goggia. Measurer
   PS1 Science Consortium. 1.8-m Ritchey-Chrétien + CCD.
(F52) Pan-STARRS 2, Haleakala  (N20.707384 W156.255910)  US/Hawaii. 1.8-m
   Ritchey-Chrétien + CCD.
(I93) St Pardon de Conques  (N44.558710 W0.203000)  France.  Observer F.
   Losse. 0.40-m f/3.7 reflector + CCD.
(L01) Višnjan Observatory, Tičan  (N45.290900 E13.749300)  Croatia.
   Observers K. Korlević, E. Pettarin. Measurer E. Pettarin. 1.0-m f/2.9
   reflector + CCD.

Orbital elements:  P212g2Y
   Perihelion 2020 Sep 20.612895 +/- 0.378 TT = 14:42:34 (JD 2459113.112895)
Epoch 2020 Jun 30.0 TT = JDT 2459030.5   Earth MOID: 0.0426   Ma: 0.0716
M 341.07087056 +/- 1.0              (J2000 ecliptic)          AutoNEOCP
n   0.22913044 +/- 0.0114           Peri.  250.52725 +/- 0.7
a   2.64492999 +/- 0.0879           Node   133.07294 +/- 0.17
e   0.6576472 +/- 0.00952           Incl.    5.25046 +/- 0.018
P   4.30                   H 20.0   G  0.15   U  9.7  
q 0.90549896 +/- 0.00503    Q 4.38436102 +/- 0.174
From 15 observations 2020 May 30-June 30; mean residual 0".45
Residuals in arcseconds: 
200530 F51  .00   .04-    200629 F52  .24-  .01-    200630 I93  .05+  .60+    
200530 F51  .00   .04+    200630 L01  .54-  .10-    200630 I93  .16-  .49+    
200629 F52  .13-  .18+    200630 L01  1.4+  1.0-    200630 F51  .17-  .11+    
200629 F52  .16-  .04+    200630 L01  .44+  1.2-    200630 F51  .10-  .18+    
200629 F52  .02+  .23+    200630 I93  .30-  .39+    200630 F51  .14-  .15+    

Ephemerides (geocentric):
Date (UTC) HH   RA              Dec         delta   r     elong  mag " sig PA
---- -- -- --  -------------   -----------  ------ ------ -----  --- ---- ---
2020 07 01 01  22 15 16.061   -07 10 28.16  .56887 1.4284 126.2 21.0 1.52  85
2020 07 01 02  22 15 23.266   -07 09 59.46  .56833 1.4280 126.2 21.0 1.53  85
2020 07 01 03  22 15 30.478   -07 09 30.72  .56780 1.4277 126.2 21.0 1.55  86
2020 07 01 04  22 15 37.698   -07 09 01.97  .56727 1.4273 126.2 20.9 1.57  87
2020 07 01 05  22 15 44.926   -07 08 33.19  .56674 1.4269 126.2 20.9 1.59  87
2020 07 01 06  22 15 52.161   -07 08 04.38  .56621 1.4265 126.2 20.9 1.61  88
2020 07 01 07  22 15 59.404   -07 07 35.55  .56567 1.4261 126.3 20.9 1.63  89
2020 07 01 08  22 16 06.654   -07 07 06.70  .56514 1.4257 126.3 20.9 1.65  89
2020 07 01 09  22 16 13.912   -07 06 37.82  .56461 1.4254 126.3 20.9 1.67  90
2020 07 01 10  22 16 21.178   -07 06 08.92  .56408 1.4250 126.3 20.9 1.70  91
2020 07 01 11  22 16 28.452   -07 05 39.99  .56355 1.4246 126.3 20.9 1.72  91
2020 07 01 12  22 16 35.734   -07 05 11.04  .56302 1.4242 126.3 20.9 1.74  92
2020 07 01 13  22 16 43.023   -07 04 42.06  .56249 1.4238 126.3 20.9 1.77  92
2020 07 01 14  22 16 50.320   -07 04 13.06  .56196 1.4234 126.3 20.9 1.79  93
2020 07 01 15  22 16 57.625   -07 03 44.04  .56143 1.4231 126.3 20.9 1.82  94
2020 07 01 16  22 17 04.938   -07 03 14.98  .56090 1.4227 126.3 20.9 1.85  94
2020 07 01 17  22 17 12.258   -07 02 45.91  .56037 1.4223 126.3 20.9 1.87  95
2020 07 01 18  22 17 19.587   -07 02 16.81  .55985 1.4219 126.4 20.9 1.90  95
2020 07 01 19  22 17 26.923   -07 01 47.68  .55932 1.4215 126.4 20.9 1.93  96
2020 07 01 20  22 17 34.267   -07 01 18.53  .55879 1.4211 126.4 20.9 1.96  96
2020 07 01 21  22 17 41.620   -07 00 49.35  .55826 1.4208 126.4 20.9 1.99  96
2020 07 01 22  22 17 48.980   -07 00 20.15  .55773 1.4204 126.4 20.9 2.02  97
2020 07 01 23  22 17 56.348   -06 59 50.92  .55721 1.4200 126.4 20.9 2.05  97
2020 07 02 00  22 18 03.724   -06 59 21.67  .55668 1.4196 126.4 20.9 2.08  98
2020 07 02 01  22 18 11.108   -06 58 52.39  .55615 1.4192 126.4 20.9 2.11  98
2020 07 02 02  22 18 18.500   -06 58 23.09  .55563 1.4188 126.4 20.9 2.15  98
2020 07 02 03  22 18 25.901   -06 57 53.76  .55510 1.4185 126.4 20.9 2.18  99
2020 07 02 04  22 18 33.309   -06 57 24.40  .55457 1.4181 126.4 20.9 2.21  99
2020 07 02 05  22 18 40.725   -06 56 55.02  .55405 1.4177 126.4 20.9 2.25  99
2020 07 02 06  22 18 48.150   -06 56 25.62  .55352 1.4173 126.5 20.9 2.28 100
2020 07 02 07  22 18 55.583   -06 55 56.18  .55300 1.4169 126.5 20.9 2.32 100
2020 07 02 08  22 19 03.023   -06 55 26.73  .55247 1.4165 126.5 20.9 2.36 100
2020 07 02 09  22 19 10.472   -06 54 57.24  .55195 1.4162 126.5 20.9 2.39 101
2020 07 02 10  22 19 17.929   -06 54 27.73  .55142 1.4158 126.5 20.9 2.43 101
2020 07 02 11  22 19 25.395   -06 53 58.19  .55090 1.4154 126.5 20.9 2.47 101
2020 07 02 12  22 19 32.868   -06 53 28.63  .55038 1.4150 126.5 20.9 2.51 101
2020 07 02 13  22 19 40.350   -06 52 59.04  .54985 1.4146 126.5 20.9 2.54 102
2020 07 02 14  22 19 47.840   -06 52 29.43  .54933 1.4142 126.5 20.9 2.58 102
2020 07 02 15  22 19 55.339   -06 51 59.79  .54880 1.4139 126.5 20.9 2.62 102
2020 07 02 16  22 20 02.846   -06 51 30.12  .54828 1.4135 126.5 20.9 2.67 102
2020 07 02 17  22 20 10.361   -06 51 00.42  .54776 1.4131 126.5 20.9 2.71 102
2020 07 02 18  22 20 17.884   -06 50 30.70  .54724 1.4127 126.5 20.9 2.75 103
2020 07 02 19  22 20 25.416   -06 50 00.95  .54671 1.4123 126.6 20.9 2.79 103
2020 07 02 20  22 20 32.956   -06 49 31.18  .54619 1.4119 126.6 20.8 2.83 103
2020 07 02 21  22 20 40.505   -06 49 01.38  .54567 1.4116 126.6 20.8 2.88 103
2020 07 02 22  22 20 48.062   -06 48 31.55  .54515 1.4112 126.6 20.8 2.92 103
2020 07 02 23  22 20 55.627   -06 48 01.69  .54463 1.4108 126.6 20.8 2.97 103
2020 07 03 00  22 21 03.201   -06 47 31.81  .54411 1.4104 126.6 20.8 3.01 103